Grafton, IL

1:36 PM CST on February 25, 2017 (GMT -0600)
Saint Charles County Smartt

Weather History for KSET - November, 2012

Change the Weather History Date:

Tuesday, November 27, 2012

  Actual Average (KSTL) Record (KSTL)
Temperature  
Mean Temperature 29 °F -  
Max Temperature 37 °F 48 °F 76 °F (1989)
Min Temperature 21 °F 33 °F 12 °F (1898)
Degree Days  
Heating Degree Days 36    
Moisture  
Dew Point 17 °F    
Average Humidity 64    
Maximum Humidity 85    
Minimum Humidity 42    
Precipitation  
Precipitation 0.00 in - - ()
Sea Level Pressure  
Sea Level Pressure 30.40 in    
Wind  
Wind Speed 4 mph (NNW)    
Max Wind Speed 9 mph    
Max Gust Speed -    
Visibility 10 miles    
Events Snow    
Averages and records for this station are not official NWS values.
T = Trace of Precipitation, MM = Missing Value Source: NWS Daily Summary

Daily Weather History Graph

Daily Weather History Graph

Search for Another Location

Airport or City:

Trip Planner

Search our weather history database for the weather conditions in past years. The results will help you decide how hot, cold, wet, or windy it might be!

Date:

Astronomy

Nov. 27, 2012 Rise Set
Actual Time 6:57 AM CST 4:40 PM CST
Civil Twilight 6:28 AM CST 5:10 PM CST
Nautical Twilight 5:55 AM CST 5:43 PM CST
Astronomical Twilight 5:23 AM CST 6:15 PM CST
Moon 4:12 PM CST (11/27) 6:03 AM CST (11/27)
Length of Visible Light 10h 41m
Length of Day
9h 43m
Waxing Gibbous, 99% of the Moon is Illuminated
Nov 27
Waxing Gibbous
Nov 28
Full
Dec 6
Last Quarter
Dec 13
New
Dec 19
First Quarter

Hourly Weather History & Observations

Time (CST) Temp. Windchill Dew Point Humidity Pressure Visibility Wind Dir Wind Speed Gust Speed Precip Events Conditions
12:54 AM 27.0 °F 20.5 °F 17.1 °F 66% 30.41 in 9.0 mi NNW 5.8 mph - 0.00 in Snow Light Snow
1:54 AM 26.1 °F 18.4 °F 16.0 °F 66% 30.41 in 9.0 mi NNW 6.9 mph - 0.00 in Snow Light Snow
2:54 AM 25.0 °F 15.5 °F 16.0 °F 69% 30.41 in 9.0 mi North 9.2 mph - 0.00 in Snow Light Snow
3:54 AM 23.0 °F 17.0 °F 15.1 °F 72% 30.40 in 9.0 mi North 4.6 mph - 0.00 in Snow Light Snow
4:54 AM 23.0 °F 13.1 °F 15.1 °F 72% 30.41 in 9.0 mi North 9.2 mph - 0.00 in Snow Light Snow
5:54 AM 23.0 °F 17.0 °F 14.0 °F 68% 30.43 in 10.0 mi NW 4.6 mph - 0.00 in   Clear
6:54 AM 21.0 °F 14.6 °F 14.0 °F 74% 30.45 in 10.0 mi North 4.6 mph - N/A   Clear
7:54 AM 24.1 °F 17.0 °F 16.0 °F 71% 30.46 in 9.0 mi NNW 5.8 mph - 0.00 in Snow Light Snow
8:54 AM 27.0 °F - 16.0 °F 63% 30.48 in 10.0 mi Calm Calm - 0.00 in   Clear
9:54 AM 28.9 °F - 17.1 °F 61% 30.48 in 10.0 mi Calm Calm - N/A   Clear
10:54 AM 32.0 °F - 19.9 °F 61% 30.48 in 10.0 mi Calm Calm - N/A   Clear
11:54 AM 34.0 °F - 19.9 °F 56% 30.45 in 10.0 mi Calm Calm - N/A   Clear
12:54 PM 36.0 °F 33.3 °F 19.0 °F 50% 30.40 in 10.0 mi Variable 3.5 mph - N/A   Clear
1:54 PM 37.0 °F - 19.9 °F 50% 30.37 in 10.0 mi Calm Calm - N/A   Clear
2:54 PM 37.0 °F 34.5 °F 16.0 °F 42% 30.35 in 9.0 mi SSW 3.5 mph - 0.00 in   Clear
3:54 PM 37.0 °F - 19.0 °F 48% 30.35 in 10.0 mi Calm Calm - 0.00 in   Clear
4:54 PM 36.0 °F - 19.0 °F 50% 30.35 in 10.0 mi Calm Calm - N/A   Clear
5:54 PM 30.9 °F - 17.1 °F 57% 30.34 in 10.0 mi Calm Calm - N/A   Clear
6:54 PM 26.1 °F - 16.0 °F 66% 30.34 in 10.0 mi Calm Calm - N/A   Clear
7:54 PM 27.0 °F - 21.9 °F 81% 30.35 in 9.0 mi Calm Calm - N/A   Clear
8:54 PM 25.0 °F - 19.9 °F 81% 30.36 in 9.0 mi Calm Calm - N/A   Clear
9:54 PM 25.0 °F - 17.1 °F 72% 30.35 in 10.0 mi Calm Calm - N/A   Clear
10:54 PM 23.0 °F - 19.0 °F 85% 30.35 in 9.0 mi Calm Calm - N/A   Clear